Year,Month,Day,Hour,Minute,Value (Times are PST for temperature in C)
2021,12,27,00,00,-11.00
2021,12,27,00,01,-11.00
2021,12,27,00,02,-11.00
2021,12,27,00,03,-11.10
2021,12,27,00,04,-11.10
2021,12,27,00,05,-11.10
2021,12,27,00,06,-11.10
2021,12,27,00,07,-11.10
2021,12,27,00,08,-11.10
2021,12,27,00,09,-11.10
2021,12,27,00,10,-11.00
2021,12,27,00,11,-11.00
2021,12,27,00,12,-11.00
2021,12,27,00,13,-11.00
2021,12,27,00,14,-11.00
2021,12,27,00,15,-11.10
2021,12,27,00,16,-11.00
2021,12,27,00,17,-11.10
2021,12,27,00,18,-11.10
2021,12,27,00,19,-11.10
2021,12,27,00,20,-11.10
2021,12,27,00,21,-11.10
2021,12,27,00,22,-11.10
2021,12,27,00,23,-11.10
2021,12,27,00,24,-11.10
2021,12,27,00,25,-11.10
2021,12,27,00,26,-11.10
2021,12,27,00,27,-11.20
2021,12,27,00,28,-11.10
2021,12,27,00,29,-11.20
2021,12,27,00,30,-11.20
2021,12,27,00,31,-11.20
2021,12,27,00,32,-11.20
2021,12,27,00,33,-11.20
2021,12,27,00,34,-11.20
2021,12,27,00,35,-11.20
2021,12,27,00,36,-11.20
2021,12,27,00,37,-11.20
2021,12,27,00,38,-11.20
2021,12,27,00,39,-11.20
2021,12,27,00,40,-11.20
2021,12,27,00,41,-11.20
2021,12,27,00,42,-11.20
2021,12,27,00,43,-11.20
2021,12,27,00,44,-11.20
2021,12,27,00,45,-11.20
2021,12,27,00,46,-11.20
2021,12,27,00,47,-11.30
2021,12,27,00,48,-11.30
2021,12,27,00,49,-11.30
2021,12,27,00,50,-11.30
2021,12,27,00,51,-11.30
2021,12,27,00,52,-11.20
2021,12,27,00,53,-11.20
2021,12,27,00,54,-11.20
2021,12,27,00,55,-11.20
2021,12,27,00,56,-11.10
2021,12,27,00,57,-11.10
2021,12,27,00,58,-11.10
2021,12,27,00,59,-11.10
2021,12,27,01,00,-11.10
2021,12,27,01,01,-11.00
2021,12,27,01,02,-11.00
2021,12,27,01,03,-10.90
2021,12,27,01,04,-10.90
2021,12,27,01,05,-10.90
2021,12,27,01,06,-10.90
2021,12,27,01,07,-10.90
2021,12,27,01,08,-10.90
2021,12,27,01,09,-10.90
2021,12,27,01,10,-10.90
2021,12,27,01,11,-10.80
2021,12,27,01,12,-10.80
2021,12,27,01,13,-10.80
2021,12,27,01,14,-10.80
2021,12,27,01,15,-10.80
2021,12,27,01,16,-10.80
2021,12,27,01,17,-10.80
2021,12,27,01,18,-10.80
2021,12,27,01,19,-10.80
2021,12,27,01,20,-10.80
2021,12,27,01,21,-10.80
2021,12,27,01,22,-10.80
2021,12,27,01,23,-10.80
2021,12,27,01,24,-10.70
2021,12,27,01,25,-10.70
2021,12,27,01,26,-10.70
2021,12,27,01,27,-10.70
2021,12,27,01,28,-10.70
2021,12,27,01,29,-10.70
2021,12,27,01,30,-10.70
2021,12,27,01,31,-10.70
2021,12,27,01,32,-10.70
2021,12,27,01,33,-10.70
2021,12,27,01,34,-10.70
2021,12,27,01,35,-10.70
2021,12,27,01,36,-10.70
2021,12,27,01,37,-10.70
2021,12,27,01,38,-10.70
2021,12,27,01,39,-10.70
2021,12,27,01,40,-10.70
2021,12,27,01,41,-10.70
2021,12,27,01,42,-10.70
2021,12,27,01,43,-10.70
2021,12,27,01,44,-10.70
2021,12,27,01,45,-10.70
2021,12,27,01,46,-10.70
2021,12,27,01,47,-10.70
2021,12,27,01,48,-10.70
2021,12,27,01,49,-10.70
2021,12,27,01,50,-10.80
2021,12,27,01,51,-10.80
2021,12,27,01,52,-10.80
2021,12,27,01,53,-10.80
2021,12,27,01,54,-10.80
2021,12,27,01,55,-10.80
2021,12,27,01,56,-10.80
2021,12,27,01,57,-10.90
2021,12,27,01,58,-10.90
2021,12,27,01,59,-10.90
2021,12,27,02,00,-10.90
2021,12,27,02,01,-10.90
2021,12,27,02,02,-10.90
2021,12,27,02,03,-10.90
2021,12,27,02,04,-10.90
2021,12,27,02,05,-10.90
2021,12,27,02,06,-10.90
2021,12,27,02,07,-11.00
2021,12,27,02,08,-11.00
2021,12,27,02,09,-11.00
2021,12,27,02,10,-11.00
2021,12,27,02,11,-11.00
2021,12,27,02,12,-11.00
2021,12,27,02,13,-11.00
2021,12,27,02,14,-11.00
2021,12,27,02,15,-11.10
2021,12,27,02,16,-11.10
2021,12,27,02,17,-11.10
2021,12,27,02,18,-11.00
2021,12,27,02,19,-11.00
2021,12,27,02,20,-11.00
2021,12,27,02,21,-11.10
2021,12,27,02,22,-11.00
2021,12,27,02,23,-11.10
2021,12,27,02,24,-11.10
2021,12,27,02,25,-11.10
2021,12,27,02,26,-11.10
2021,12,27,02,27,-11.10
2021,12,27,02,28,-11.10
2021,12,27,02,29,-11.10
2021,12,27,02,30,-11.10
2021,12,27,02,31,-11.10
2021,12,27,02,32,-11.10
2021,12,27,02,33,-11.10
2021,12,27,02,34,-11.10
2021,12,27,02,35,-11.10
2021,12,27,02,36,-11.10
2021,12,27,02,37,-11.10
2021,12,27,02,38,-11.10
2021,12,27,02,39,-11.10
2021,12,27,02,40,-11.10
2021,12,27,02,41,-11.20
2021,12,27,02,42,-11.20
2021,12,27,02,43,-11.20
2021,12,27,02,44,-11.20
2021,12,27,02,45,-11.20
2021,12,27,02,46,-11.20
2021,12,27,02,47,-11.20
2021,12,27,02,48,-11.20
2021,12,27,02,49,-11.20
2021,12,27,02,50,-11.20
2021,12,27,02,51,-11.20
2021,12,27,02,52,-11.20
2021,12,27,02,53,-11.20
2021,12,27,02,54,-11.30
2021,12,27,02,55,-11.30
2021,12,27,02,56,-11.30
2021,12,27,02,57,-11.30
2021,12,27,02,58,-11.30
2021,12,27,02,59,-11.30
2021,12,27,03,00,-11.30
2021,12,27,03,01,-11.30
2021,12,27,03,02,-11.30
2021,12,27,03,03,-11.30
2021,12,27,03,04,-11.30
2021,12,27,03,05,-11.30
2021,12,27,03,06,-11.30
2021,12,27,03,07,-11.30
2021,12,27,03,08,-11.30
2021,12,27,03,09,-11.30
2021,12,27,03,10,-11.30
2021,12,27,03,11,-11.30
2021,12,27,03,12,-11.30
2021,12,27,03,13,-11.30
2021,12,27,03,14,-11.30
2021,12,27,03,15,-11.30
2021,12,27,03,16,-11.30
2021,12,27,03,17,-11.40
2021,12,27,03,18,-11.40
2021,12,27,03,19,-11.40
2021,12,27,03,20,-11.40
2021,12,27,03,21,-11.40
2021,12,27,03,22,-11.40
2021,12,27,03,23,-11.40
2021,12,27,03,24,-11.40
2021,12,27,03,25,-11.40
2021,12,27,03,26,-11.50
2021,12,27,03,27,-11.50
2021,12,27,03,28,-11.50
2021,12,27,03,29,-11.50
2021,12,27,03,30,-11.60
2021,12,27,03,31,-11.60
2021,12,27,03,32,-11.60
2021,12,27,03,33,-11.60
2021,12,27,03,34,-11.60
2021,12,27,03,35,-11.60
2021,12,27,03,36,-11.60
2021,12,27,03,37,-11.60
2021,12,27,03,38,-11.60
2021,12,27,03,39,-11.60
2021,12,27,03,40,-11.60
2021,12,27,03,41,-11.60
2021,12,27,03,42,-11.60
2021,12,27,03,43,-11.60
2021,12,27,03,44,-11.60
2021,12,27,03,45,-11.60
2021,12,27,03,46,-11.60
2021,12,27,03,47,-11.60
2021,12,27,03,48,-11.60
2021,12,27,03,49,-11.70
2021,12,27,03,50,-11.70
2021,12,27,03,51,-11.70
2021,12,27,03,52,-11.70
2021,12,27,03,53,-11.70
2021,12,27,03,54,-11.70
2021,12,27,03,55,-11.70
2021,12,27,03,56,-11.70
2021,12,27,03,57,-11.70
2021,12,27,03,58,-11.70
2021,12,27,03,59,-11.70
2021,12,27,04,00,-11.80
2021,12,27,04,01,-11.70
2021,12,27,04,02,-11.80
2021,12,27,04,03,-11.80
2021,12,27,04,04,-11.80
2021,12,27,04,05,-11.80
2021,12,27,04,06,-11.80
2021,12,27,04,07,-11.80
2021,12,27,04,08,-11.80
2021,12,27,04,09,-11.80
2021,12,27,04,10,-11.80
2021,12,27,04,11,-11.80
2021,12,27,04,12,-11.80
2021,12,27,04,13,-11.80
2021,12,27,04,14,-11.80
2021,12,27,04,15,-11.80
2021,12,27,04,16,-11.80
2021,12,27,04,17,-11.80
2021,12,27,04,18,-11.80
2021,12,27,04,19,-11.80
2021,12,27,04,20,-11.80
2021,12,27,04,21,-11.80
2021,12,27,04,22,-11.80
2021,12,27,04,23,-11.80
2021,12,27,04,24,-11.80
2021,12,27,04,25,-11.80
2021,12,27,04,26,-11.80
2021,12,27,04,27,-11.80
2021,12,27,04,28,-11.80
2021,12,27,04,29,-11.80
2021,12,27,04,30,-11.80
2021,12,27,04,31,-11.80
2021,12,27,04,32,-11.80
2021,12,27,04,33,-11.80
2021,12,27,04,34,-11.80
2021,12,27,04,35,-11.80
2021,12,27,04,36,-11.70
2021,12,27,04,37,-11.70
2021,12,27,04,38,-11.70
2021,12,27,04,39,-11.70
2021,12,27,04,40,-11.70
2021,12,27,04,41,-11.70
2021,12,27,04,42,-11.70
2021,12,27,04,43,-11.70
2021,12,27,04,44,-11.70
2021,12,27,04,45,-11.70
2021,12,27,04,46,-11.70
2021,12,27,04,47,-11.70
2021,12,27,04,48,-11.70
2021,12,27,04,49,-11.70
2021,12,27,04,50,-11.70
2021,12,27,04,51,-11.70
2021,12,27,04,52,-11.60
2021,12,27,04,53,-11.60
2021,12,27,04,54,-11.60
2021,12,27,04,55,-11.60
2021,12,27,04,56,-11.60
2021,12,27,04,57,-11.60
2021,12,27,04,58,-11.60
2021,12,27,04,59,-11.60
2021,12,27,05,00,-11.60
2021,12,27,05,01,-11.70
2021,12,27,05,02,-11.60
2021,12,27,05,03,-11.60
2021,12,27,05,04,-11.60
2021,12,27,05,05,-11.60
2021,12,27,05,06,-11.60
2021,12,27,05,07,-11.60
2021,12,27,05,08,-11.60
2021,12,27,05,09,-11.60
2021,12,27,05,10,-11.60
2021,12,27,05,11,-11.60
2021,12,27,05,12,-11.60
2021,12,27,05,13,-11.60
2021,12,27,05,14,-11.60
2021,12,27,05,15,-11.60
2021,12,27,05,16,-11.60
2021,12,27,05,17,-11.60
2021,12,27,05,18,-11.60
2021,12,27,05,19,-11.60
2021,12,27,05,20,-11.60
2021,12,27,05,21,-11.50
2021,12,27,05,22,-11.50
2021,12,27,05,23,-11.50
2021,12,27,05,24,-11.50
2021,12,27,05,25,-11.50
2021,12,27,05,26,-11.50
2021,12,27,05,27,-11.50
2021,12,27,05,28,-11.40
2021,12,27,05,29,-11.40
2021,12,27,05,30,-11.40
2021,12,27,05,31,-11.40
2021,12,27,05,32,-11.40
2021,12,27,05,33,-11.40
2021,12,27,05,34,-11.40
2021,12,27,05,35,-11.40
2021,12,27,05,36,-11.40
2021,12,27,05,37,-11.40
2021,12,27,05,38,-11.40
2021,12,27,05,39,-11.40
2021,12,27,05,40,-11.40
2021,12,27,05,41,-11.40
2021,12,27,05,42,-11.40
2021,12,27,05,43,-11.40
2021,12,27,05,44,-11.40
2021,12,27,05,45,-11.40
2021,12,27,05,46,-11.40
2021,12,27,05,47,-11.40
2021,12,27,05,48,-11.40
2021,12,27,05,49,-11.30
2021,12,27,05,50,-11.30
2021,12,27,05,51,-11.30
2021,12,27,05,52,-11.30
2021,12,27,05,53,-11.30
2021,12,27,05,54,-11.30
2021,12,27,05,55,-11.30
2021,12,27,05,56,-11.30
2021,12,27,05,57,-11.20
2021,12,27,05,58,-11.20
2021,12,27,05,59,-11.20
2021,12,27,06,00,-11.10
2021,12,27,06,01,-11.10
2021,12,27,06,02,-11.10
2021,12,27,06,03,-11.00
2021,12,27,06,04,-11.00
2021,12,27,06,05,-11.00
2021,12,27,06,06,-11.00
2021,12,27,06,07,-11.00
2021,12,27,06,08,-10.90
2021,12,27,06,09,-10.90
2021,12,27,06,10,-10.90
2021,12,27,06,11,-10.90
2021,12,27,06,12,-10.90
2021,12,27,06,13,-10.90
2021,12,27,06,14,-10.90
2021,12,27,06,15,-10.90
2021,12,27,06,16,-10.90
2021,12,27,06,17,-10.90
2021,12,27,06,18,-10.90
2021,12,27,06,19,-10.90
2021,12,27,06,20,-10.90
2021,12,27,06,21,-10.80
2021,12,27,06,22,-10.80
2021,12,27,06,23,-10.80
2021,12,27,06,24,-10.80
2021,12,27,06,25,-10.80
2021,12,27,06,26,-10.80
2021,12,27,06,27,-10.80
2021,12,27,06,28,-10.80
2021,12,27,06,29,-10.80
2021,12,27,06,30,-10.80
2021,12,27,06,31,-10.70
2021,12,27,06,32,-10.70
2021,12,27,06,33,-10.70
2021,12,27,06,34,-10.70
2021,12,27,06,35,-10.70
2021,12,27,06,36,-10.70
2021,12,27,06,37,-10.70
2021,12,27,06,38,-10.70
2021,12,27,06,39,-10.60
2021,12,27,06,40,-10.60
2021,12,27,06,41,-10.60
2021,12,27,06,42,-10.60
2021,12,27,06,43,-10.60
2021,12,27,06,44,-10.60
2021,12,27,06,45,-10.60
2021,12,27,06,46,-10.60
2021,12,27,06,47,-10.60
2021,12,27,06,48,-10.60
2021,12,27,06,49,-10.60
2021,12,27,06,50,-10.60
2021,12,27,06,51,-10.60
2021,12,27,06,52,-10.60
2021,12,27,06,53,-10.60
2021,12,27,06,54,-10.60
2021,12,27,06,55,-10.60
2021,12,27,06,56,-10.60
2021,12,27,06,57,-10.60
2021,12,27,06,58,-10.60
2021,12,27,06,59,-10.60
2021,12,27,07,00,-10.60
2021,12,27,07,01,-10.60
2021,12,27,07,02,-10.60
2021,12,27,07,03,-10.60
2021,12,27,07,04,-10.60
2021,12,27,07,05,-10.60
2021,12,27,07,06,-10.60
2021,12,27,07,07,-10.60
2021,12,27,07,08,-10.60
2021,12,27,07,09,-10.60
2021,12,27,07,10,-10.60
2021,12,27,07,11,-10.60
2021,12,27,07,12,-10.60
2021,12,27,07,13,-10.60
2021,12,27,07,14,-10.60
2021,12,27,07,15,-10.60
2021,12,27,07,16,-10.60
2021,12,27,07,17,-10.60
2021,12,27,07,18,-10.60
2021,12,27,07,19,-10.60
2021,12,27,07,20,-10.60
2021,12,27,07,21,-10.60
2021,12,27,07,22,-10.60
2021,12,27,07,23,-10.60
2021,12,27,07,24,-10.60
2021,12,27,07,25,-10.60
2021,12,27,07,26,-10.60
2021,12,27,07,27,-10.60
2021,12,27,07,28,-10.60
2021,12,27,07,29,-10.60
2021,12,27,07,30,-10.60
2021,12,27,07,31,-10.60
2021,12,27,07,32,-10.50
2021,12,27,07,33,-10.50
2021,12,27,07,34,-10.60
2021,12,27,07,35,-10.50
2021,12,27,07,36,-10.50
2021,12,27,07,37,-10.50
2021,12,27,07,38,-10.50
2021,12,27,07,39,-10.50
2021,12,27,07,40,-10.50
2021,12,27,07,41,-10.50
2021,12,27,07,42,-10.50
2021,12,27,07,43,-10.40
2021,12,27,07,44,-10.40
2021,12,27,07,45,-10.40
2021,12,27,07,46,-10.40
2021,12,27,07,47,-10.40
2021,12,27,07,48,-10.40
2021,12,27,07,49,-10.40
2021,12,27,07,50,-10.40
2021,12,27,07,51,-10.40
2021,12,27,07,52,-10.40
2021,12,27,07,53,-10.40
2021,12,27,07,54,-10.40
2021,12,27,07,55,-10.40
2021,12,27,07,56,-10.40
2021,12,27,07,57,-10.40
2021,12,27,07,58,-10.40
2021,12,27,07,59,-10.40
2021,12,27,08,00,-10.30
2021,12,27,08,01,-10.30
2021,12,27,08,02,-10.30
2021,12,27,08,03,-10.30
2021,12,27,08,04,-10.30
2021,12,27,08,05,-10.30
2021,12,27,08,06,-10.30
2021,12,27,08,07,-10.30
2021,12,27,08,08,-10.30
2021,12,27,08,09,-10.30
2021,12,27,08,10,-10.30
2021,12,27,08,11,-10.30
2021,12,27,08,12,-10.20
2021,12,27,08,13,-10.20
2021,12,27,08,14,-10.20
2021,12,27,08,15,-10.20
2021,12,27,08,16,-10.20
2021,12,27,08,17,-10.20
2021,12,27,08,18,-10.20
2021,12,27,08,19,-10.20
2021,12,27,08,20,-10.20
2021,12,27,08,21,-10.20
2021,12,27,08,22,-10.20
2021,12,27,08,23,-10.20
2021,12,27,08,24,-10.20
2021,12,27,08,25,-10.10
2021,12,27,08,26,-10.10
2021,12,27,08,27,-10.10
2021,12,27,08,28,-10.10
2021,12,27,08,29,-10.10
2021,12,27,08,30,-10.10
2021,12,27,08,31,-10.10
2021,12,27,08,32,-10.10
2021,12,27,08,33,-10.10
2021,12,27,08,34,-10.00
2021,12,27,08,35,-10.00
2021,12,27,08,36,-10.00
2021,12,27,08,37,-10.00
2021,12,27,08,38,-10.00
2021,12,27,08,39,-9.90
2021,12,27,08,40,-9.90
2021,12,27,08,41,-9.90
2021,12,27,08,42,-9.90
2021,12,27,08,43,-9.90
2021,12,27,08,44,-9.90
2021,12,27,08,45,-9.90
2021,12,27,08,46,-9.90
2021,12,27,08,47,-9.90
2021,12,27,08,48,-9.90
2021,12,27,08,49,-9.90
2021,12,27,08,50,-9.90
2021,12,27,08,51,-9.90
2021,12,27,08,52,-9.90
2021,12,27,08,53,-9.90
2021,12,27,08,54,-9.80
2021,12,27,08,55,-9.80
2021,12,27,08,56,-9.80
2021,12,27,08,57,-9.80
2021,12,27,08,58,-9.80
2021,12,27,08,59,-9.80
2021,12,27,09,00,-9.80
2021,12,27,09,01,-9.80
2021,12,27,09,02,-9.80
2021,12,27,09,03,-9.80
2021,12,27,09,04,-9.80
2021,12,27,09,05,-9.80
2021,12,27,09,06,-9.80
2021,12,27,09,07,-9.80
2021,12,27,09,08,-9.80
2021,12,27,09,09,-9.80
2021,12,27,09,10,-9.80
2021,12,27,09,11,-9.80
2021,12,27,09,12,-9.70
2021,12,27,09,13,-9.70
2021,12,27,09,14,-9.70
2021,12,27,09,15,-9.70
2021,12,27,09,16,-9.70
2021,12,27,09,17,-9.70
2021,12,27,09,18,-9.70
2021,12,27,09,19,-9.70
2021,12,27,09,20,-9.70
2021,12,27,09,21,-9.70
2021,12,27,09,22,-9.70
2021,12,27,09,23,-9.70
2021,12,27,09,24,-9.70
2021,12,27,09,25,-9.70
2021,12,27,09,26,-9.70
2021,12,27,09,27,-9.70
2021,12,27,09,28,-9.70
2021,12,27,09,29,-9.60
2021,12,27,09,30,-9.60
2021,12,27,09,31,-9.60
2021,12,27,09,32,-9.60
2021,12,27,09,33,-9.60
2021,12,27,09,34,-9.60
2021,12,27,09,35,-9.60
2021,12,27,09,36,-9.60
2021,12,27,09,37,-9.60
2021,12,27,09,38,-9.60
2021,12,27,09,39,-9.50
2021,12,27,09,40,-9.50
2021,12,27,09,41,-9.50
2021,12,27,09,42,-9.50
2021,12,27,09,43,-9.50
2021,12,27,09,44,-9.50
2021,12,27,09,45,-9.50
2021,12,27,09,46,-9.50
2021,12,27,09,47,-9.50
2021,12,27,09,48,-9.40
2021,12,27,09,49,-9.40
2021,12,27,09,50,-9.40
2021,12,27,09,51,-9.40
2021,12,27,09,52,-9.40
2021,12,27,09,53,-9.40
2021,12,27,09,54,-9.40
2021,12,27,09,55,-9.40
2021,12,27,09,56,-9.40
2021,12,27,09,57,-9.40
2021,12,27,09,58,-9.40
2021,12,27,09,59,-9.40
2021,12,27,10,00,-9.40
2021,12,27,10,01,-9.40
2021,12,27,10,02,-9.30
2021,12,27,10,03,-9.30
2021,12,27,10,04,-9.30
2021,12,27,10,05,-9.30
2021,12,27,10,06,-9.30
2021,12,27,10,07,-9.30
2021,12,27,10,08,-9.30
2021,12,27,10,09,-9.30
2021,12,27,10,10,-9.30
2021,12,27,10,11,-9.30
2021,12,27,10,12,-9.30
2021,12,27,10,13,-9.30
2021,12,27,10,14,-9.20
2021,12,27,10,15,-9.20
2021,12,27,10,16,-9.20
2021,12,27,10,17,-9.20
2021,12,27,10,18,-9.20
2021,12,27,10,19,-9.20
2021,12,27,10,20,-9.20
2021,12,27,10,21,-9.20
2021,12,27,10,22,-9.10
2021,12,27,10,23,-9.10
2021,12,27,10,24,-9.10
2021,12,27,10,25,-9.10
2021,12,27,10,26,-9.10
2021,12,27,10,27,-9.10
2021,12,27,10,28,-9.00
2021,12,27,10,29,-9.00
2021,12,27,10,30,-9.00
2021,12,27,10,31,-9.00
2021,12,27,10,32,-8.90
2021,12,27,10,33,-8.90
2021,12,27,10,34,-8.90
2021,12,27,10,35,-8.90
2021,12,27,10,36,-8.90
2021,12,27,10,37,-8.90
2021,12,27,10,38,-8.90
2021,12,27,10,39,-8.90
2021,12,27,10,40,-8.90
2021,12,27,10,41,-8.90
2021,12,27,10,42,-8.90
2021,12,27,10,43,-8.90
2021,12,27,10,44,-8.90
2021,12,27,10,45,-8.90
2021,12,27,10,46,-8.80
2021,12,27,10,47,-8.80
2021,12,27,10,48,-8.80
2021,12,27,10,49,-8.80
2021,12,27,10,50,-8.80
2021,12,27,10,51,-8.80
2021,12,27,10,52,-8.80
2021,12,27,10,53,-8.80
2021,12,27,10,54,-8.80
2021,12,27,10,55,-8.70
2021,12,27,10,56,-8.70
2021,12,27,10,57,-8.70
2021,12,27,10,58,-8.70
2021,12,27,10,59,-8.70
2021,12,27,11,00,-8.70
2021,12,27,11,01,-8.70
2021,12,27,11,02,-8.70
2021,12,27,11,03,-8.70
2021,12,27,11,04,-8.60
2021,12,27,11,05,-8.60
2021,12,27,11,06,-8.60
2021,12,27,11,07,-8.60
2021,12,27,11,08,-8.60
2021,12,27,11,09,-8.60
2021,12,27,11,10,-8.60
2021,12,27,11,11,-8.60
2021,12,27,11,12,-8.50
2021,12,27,11,13,-8.60
2021,12,27,11,14,-8.50
2021,12,27,11,15,-8.50
2021,12,27,11,16,-8.50
2021,12,27,11,17,-8.50
2021,12,27,11,18,-8.50
2021,12,27,11,19,-8.40
2021,12,27,11,20,-8.40
2021,12,27,11,21,-8.40
2021,12,27,11,22,-8.40
2021,12,27,11,23,-8.40
2021,12,27,11,24,-8.40
2021,12,27,11,25,-8.30
2021,12,27,11,26,-8.30
2021,12,27,11,27,-8.30
2021,12,27,11,28,-8.30
2021,12,27,11,29,-8.30
2021,12,27,11,30,-8.20
2021,12,27,11,31,-8.20
2021,12,27,11,32,-8.20
2021,12,27,11,33,-8.10
2021,12,27,11,34,-8.10
2021,12,27,11,35,-8.10
2021,12,27,11,36,-8.10
2021,12,27,11,37,-8.00
2021,12,27,11,38,-8.00
2021,12,27,11,39,-8.00
2021,12,27,11,40,-8.00
2021,12,27,11,41,-7.90
2021,12,27,11,42,-7.90
2021,12,27,11,43,-7.90
2021,12,27,11,44,-7.90
2021,12,27,11,45,-7.80
2021,12,27,11,46,-7.80
2021,12,27,11,47,-7.80
2021,12,27,11,48,-7.80
2021,12,27,11,49,-7.70
2021,12,27,11,50,-7.70
2021,12,27,11,51,-7.70
2021,12,27,11,52,-7.70
2021,12,27,11,53,-7.60
2021,12,27,11,54,-7.60
2021,12,27,11,55,-7.60
2021,12,27,11,56,-7.50
2021,12,27,11,57,-7.50
2021,12,27,11,58,-7.50
2021,12,27,11,59,-7.50
2021,12,27,12,00,-7.50
2021,12,27,12,01,-7.60
2021,12,27,12,02,-7.60
2021,12,27,12,03,-7.60
2021,12,27,12,04,-7.60
2021,12,27,12,05,-7.50
2021,12,27,12,06,-7.50
2021,12,27,12,07,-7.50
2021,12,27,12,08,-7.40
2021,12,27,12,09,-7.40
2021,12,27,12,10,-7.40
2021,12,27,12,11,-7.40
2021,12,27,12,12,-7.30
2021,12,27,12,13,-7.30
2021,12,27,12,14,-7.30
2021,12,27,12,15,-7.30
2021,12,27,12,16,-7.30
2021,12,27,12,17,-7.30
2021,12,27,12,18,-7.20
2021,12,27,12,19,-7.20
2021,12,27,12,20,-7.20
2021,12,27,12,21,-7.20
2021,12,27,12,22,-7.20
2021,12,27,12,23,-7.10
2021,12,27,12,24,-7.10
2021,12,27,12,25,-7.20
2021,12,27,12,26,-7.10
2021,12,27,12,27,-7.10
2021,12,27,12,28,-7.10
2021,12,27,12,29,-7.10
2021,12,27,12,30,-7.10
2021,12,27,12,31,-7.10
2021,12,27,12,32,-7.10
2021,12,27,12,33,-7.10
2021,12,27,12,34,-7.10
2021,12,27,12,35,-7.10
2021,12,27,12,36,-7.10
2021,12,27,12,37,-7.10
2021,12,27,12,38,-7.10
2021,12,27,12,39,-7.10
2021,12,27,12,40,-7.10
2021,12,27,12,41,-7.10
2021,12,27,12,42,-7.10
2021,12,27,12,43,-7.10
2021,12,27,12,44,-7.10
2021,12,27,12,45,-7.10
2021,12,27,12,46,-7.10
2021,12,27,12,47,-7.10
2021,12,27,12,48,-7.10
2021,12,27,12,49,-7.10
2021,12,27,12,50,-7.10
2021,12,27,12,51,-7.00
2021,12,27,12,52,-7.00
2021,12,27,12,53,-7.00
2021,12,27,12,54,-7.00
2021,12,27,12,55,-7.00
2021,12,27,12,56,-6.90
2021,12,27,12,57,-6.90
2021,12,27,12,58,-6.90
2021,12,27,12,59,-6.90
2021,12,27,13,00,-6.90
2021,12,27,13,01,-6.80
2021,12,27,13,02,-6.80
2021,12,27,13,03,-6.80
2021,12,27,13,04,-6.80
2021,12,27,13,05,-6.80
2021,12,27,13,06,-6.80
2021,12,27,13,07,-6.80
2021,12,27,13,08,-6.80
2021,12,27,13,09,-6.80
2021,12,27,13,10,-6.80
2021,12,27,13,11,-6.80
2021,12,27,13,12,-6.80
2021,12,27,13,13,-6.80
2021,12,27,13,14,-6.80
2021,12,27,13,15,-6.80
2021,12,27,13,16,-6.80
2021,12,27,13,17,-6.80
2021,12,27,13,18,-6.80
2021,12,27,13,19,-6.80
2021,12,27,13,20,-6.80
2021,12,27,13,21,-6.80
2021,12,27,13,22,-6.80
2021,12,27,13,23,-6.80
2021,12,27,13,24,-6.70
2021,12,27,13,25,-6.70
2021,12,27,13,26,-6.70
2021,12,27,13,27,-6.70
2021,12,27,13,28,-6.70
2021,12,27,13,29,-6.70
2021,12,27,13,30,-6.70
2021,12,27,13,31,-6.70
2021,12,27,13,32,-6.80
2021,12,27,13,33,-6.80
2021,12,27,13,34,-6.80
2021,12,27,13,35,-6.80
2021,12,27,13,36,-6.80
2021,12,27,13,37,-6.70
2021,12,27,13,38,-6.70
2021,12,27,13,39,-6.70
2021,12,27,13,40,-6.70
2021,12,27,13,41,-6.70
2021,12,27,13,42,-6.70
2021,12,27,13,43,-6.70
2021,12,27,13,44,-6.70
2021,12,27,13,45,-6.70
2021,12,27,13,46,-6.70
2021,12,27,13,47,-6.70
2021,12,27,13,48,-6.70
2021,12,27,13,49,-6.70
2021,12,27,13,50,-6.70
2021,12,27,13,51,-6.70
2021,12,27,13,52,-6.70
2021,12,27,13,53,-6.70
2021,12,27,13,54,-6.70
2021,12,27,13,55,-6.70
2021,12,27,13,56,-6.70
2021,12,27,13,57,-6.70
2021,12,27,13,58,-6.70
2021,12,27,13,59,-6.70
2021,12,27,14,00,-6.70
2021,12,27,14,01,-6.70
2021,12,27,14,02,-6.70
2021,12,27,14,03,-6.80
2021,12,27,14,04,-6.80
2021,12,27,14,05,-6.80
2021,12,27,14,06,-6.80
2021,12,27,14,07,-6.80
2021,12,27,14,08,-6.80
2021,12,27,14,09,-6.80
2021,12,27,14,10,-6.80
2021,12,27,14,11,-6.80
2021,12,27,14,12,-6.80
2021,12,27,14,13,-6.90
2021,12,27,14,14,-6.90
2021,12,27,14,15,-6.90
2021,12,27,14,16,-6.90
2021,12,27,14,17,-6.90
2021,12,27,14,18,-6.90
2021,12,27,14,19,-6.90
2021,12,27,14,20,-6.90
2021,12,27,14,21,-6.90
2021,12,27,14,22,-6.90
2021,12,27,14,23,-6.90
2021,12,27,14,24,-6.90
2021,12,27,14,25,-6.90
2021,12,27,14,26,-6.90
2021,12,27,14,27,-7.00
2021,12,27,14,28,-6.90
2021,12,27,14,29,-7.00
2021,12,27,14,30,-7.00
2021,12,27,14,31,-7.00
2021,12,27,14,32,-7.00
2021,12,27,14,33,-7.00
2021,12,27,14,34,-7.00
2021,12,27,14,35,-7.00
2021,12,27,14,36,-7.00
2021,12,27,14,37,-7.10
2021,12,27,14,38,-7.10
2021,12,27,14,39,-7.10
2021,12,27,14,40,-7.10
2021,12,27,14,41,-7.10
2021,12,27,14,42,-7.10
2021,12,27,14,43,-7.10
2021,12,27,14,44,-7.10
2021,12,27,14,45,-7.10
2021,12,27,14,46,-7.20
2021,12,27,14,47,-7.20
2021,12,27,14,48,-7.20
2021,12,27,14,49,-7.20
2021,12,27,14,50,-7.20
2021,12,27,14,51,-7.30
2021,12,27,14,52,-7.30
2021,12,27,14,53,-7.30
2021,12,27,14,54,-7.30
2021,12,27,14,55,-7.30
2021,12,27,14,56,-7.30
2021,12,27,14,57,-7.30
2021,12,27,14,58,-7.30
2021,12,27,14,59,-7.30
2021,12,27,15,00,-7.30
2021,12,27,15,01,-7.30
2021,12,27,15,02,-7.30
2021,12,27,15,03,-7.30
2021,12,27,15,04,-7.30
2021,12,27,15,05,-7.30
2021,12,27,15,06,-7.30
2021,12,27,15,07,-7.30
2021,12,27,15,08,-7.30
2021,12,27,15,09,-7.30
2021,12,27,15,10,-7.30
2021,12,27,15,11,-7.30
2021,12,27,15,12,-7.30
2021,12,27,15,13,-7.30
2021,12,27,15,14,-7.30
2021,12,27,15,15,-7.30
2021,12,27,15,16,-7.30
2021,12,27,15,17,-7.30
2021,12,27,15,18,-7.30
2021,12,27,15,19,-7.30
2021,12,27,15,20,-7.30
2021,12,27,15,21,-7.30
2021,12,27,15,22,-7.30
2021,12,27,15,23,-7.30
2021,12,27,15,24,-7.40
2021,12,27,15,25,-7.40
2021,12,27,15,26,-7.40
2021,12,27,15,27,-7.40
2021,12,27,15,28,-7.40
2021,12,27,15,29,-7.40
2021,12,27,15,30,-7.40
2021,12,27,15,31,-7.40
2021,12,27,15,32,-7.40
2021,12,27,15,33,-7.40
2021,12,27,15,34,-7.40
2021,12,27,15,35,-7.40
2021,12,27,15,36,-7.40
2021,12,27,15,37,-7.40
2021,12,27,15,38,-7.40
2021,12,27,15,39,-7.40
2021,12,27,15,40,-7.40
2021,12,27,15,41,-7.40
2021,12,27,15,42,-7.50
2021,12,27,15,43,-7.50
2021,12,27,15,44,-7.50
2021,12,27,15,45,-7.50
2021,12,27,15,46,-7.50
2021,12,27,15,47,-7.50
2021,12,27,15,48,-7.50
2021,12,27,15,49,-7.50
2021,12,27,15,50,-7.50
2021,12,27,15,51,-7.50
2021,12,27,15,52,-7.60
2021,12,27,15,53,-7.60
2021,12,27,15,54,-7.60
2021,12,27,15,55,-7.60
2021,12,27,15,56,-7.60
2021,12,27,15,57,-7.60
2021,12,27,15,58,-7.60
2021,12,27,15,59,-7.60
2021,12,27,16,00,-7.60
2021,12,27,16,01,-7.60
2021,12,27,16,02,-7.60
2021,12,27,16,03,-7.60
2021,12,27,16,04,-7.60
2021,12,27,16,05,-7.60
2021,12,27,16,06,-7.60
2021,12,27,16,07,-7.60
2021,12,27,16,08,-7.60
2021,12,27,16,09,-7.60
2021,12,27,16,10,-7.60
2021,12,27,16,11,-7.60
2021,12,27,16,12,-7.50
2021,12,27,16,13,-7.60
2021,12,27,16,14,-7.60
2021,12,27,16,15,-7.60
2021,12,27,16,16,-7.60
2021,12,27,16,17,-7.60
2021,12,27,16,18,-7.50
2021,12,27,16,19,-7.60
2021,12,27,16,20,-7.60
2021,12,27,16,21,-7.60
2021,12,27,16,22,-7.60
2021,12,27,16,23,-7.60
2021,12,27,16,24,-7.60
2021,12,27,16,25,-7.50
2021,12,27,16,26,-7.50
2021,12,27,16,27,-7.60
2021,12,27,16,28,-7.60
2021,12,27,16,29,-7.50
2021,12,27,16,30,-7.60
2021,12,27,16,31,-7.50
2021,12,27,16,32,-7.50
2021,12,27,16,33,-7.50
2021,12,27,16,34,-7.50
2021,12,27,16,35,-7.50
2021,12,27,16,36,-7.50
2021,12,27,16,37,-7.50
2021,12,27,16,38,-7.50
2021,12,27,16,39,-7.50
2021,12,27,16,40,-7.50
2021,12,27,16,41,-7.50
2021,12,27,16,42,-7.50
2021,12,27,16,43,-7.50
2021,12,27,16,44,-7.50
2021,12,27,16,45,-7.50
2021,12,27,16,46,-7.50
2021,12,27,16,47,-7.50
2021,12,27,16,48,-7.50
2021,12,27,16,49,-7.50
2021,12,27,16,50,-7.40
2021,12,27,16,51,-7.40
2021,12,27,16,52,-7.50
2021,12,27,16,53,-7.40
2021,12,27,16,54,-7.40
2021,12,27,16,55,-7.40
2021,12,27,16,56,-7.40